Regional Weather Roundup
Issued by NWS Northern Indiana

Home | Current Version | Previous Version | Text Only | Print | Product List | Glossary On
Versions: 1 2 3 4 5 6 7 8 9 10 11 12 13 14 15 16 17 18 19 20 21 22 23 24 25 26 27 28 29 30 31 32 33 34 35 36 37 38 39 40 41 42 43 44 45 46 47 48 49 50
000
ASUS43 KIWX 282010
RWRIWX

KIWX WEATHER ROUNDUP
NATIONAL WEATHER SERVICE NORTHERN INDIANA
300 PM EST FRI NOV 28 2014

NOTE: "FAIR" INDICATES FEW OR NO CLOUDS BELOW 12,000 FEET WITH NO
SIGNIFICANT WEATHER AND/OR OBSTRUCTIONS TO VISIBILITY.

* THESE STATIONS ARE NOT UNDER NWS QUALITY CONTROL. THEY ALSO MAY NOT
  REPORT WEATHER SUCH AS PRECIPITATION OR FOG.

INZ001>027-282100-
NORTHERN INDIANA

CITY           SKY/WX    TMP DP  RH WIND       PRES   REMARKS
GARY*          CLOUDY    32  18  55 S18       30.07F WCI  20
VALPARAISO     CLOUDY    29  19  66 S13       30.08F WCI  19
MICHIGAN CITY* CLOUDY    30  19  64 S9        30.07F WCI  22
LAPORTE*       CLOUDY    31  22  69 S12G20    30.08F WCI  22
KNOX*          CLOUDY    30  20  68 S12       30.09F WCI  20
SOUTH BEND     PTSUNNY   28  19  69 SE15      30.11F WCI  16
GOSHEN         MOSUNNY   28  19  69 S9        30.13F WCI  19
MONTICELLO*    CLOUDY    31  21  66 SE10G16   30.11F WCI  22
LOGANSPORT*    PTSUNNY   32  19  59 SE15      30.13F WCI  22
ROCHESTER*     PTSUNNY   32  21  64 SE10G16   30.13F WCI  24
WARSAW*        MOSUNNY   30  19  64 S7        30.13F WCI  23
ANGOLA*        MOSUNNY   25  19  80 S9        30.14F WCI  15
FORT WAYNE     FLURRIES  30  18  60 S14       30.18F WCI  19
HUNTINGTON*    PTSUNNY   30  19  63 S9        30.16F WCI  21
PERU/GRISSOM   PTSUNNY   31  20  66 S16       30.13F WCI  19
MARION*          N/A     31  17  55 S13       30.16F WCI  21

$$
INZ028>050-282100-
CENTRAL INDIANA

CITY           SKY/WX    TMP DP  RH WIND       PRES   REMARKS
LAFAYETTE      CLOUDY    32  22  66 SE12G20   30.11F WCI  23
KOKOMO*        PTSUNNY   30  19  64 S17       30.14F WCI  18
MUNCIE*        PTSUNNY   32  16  51 S10       30.17F WCI  24
INDIANAPOLIS   PTSUNNY   32  19  58 SE15      30.14F WCI  22

$$
MIZ043>046-050>051-056>058-064>065-071>073-077>080-282100-
SOUTHWEST LOWER MICHIGAN

CITY           SKY/WX    TMP DP  RH WIND       PRES   REMARKS
BATTLE CREEK   CLOUDY    26  18  71 S14       30.13F WCI  14
BENTON HARBOR  CLOUDY    27  17  66 SE15      30.09F WCI  15
COLDWATER*     CLOUDY    27  21  77 S7        30.15F WCI  20
HILLSDALE*     FLURRIES  25  19  79 S7        30.14F WCI  17
HOLLAND        CLOUDY    26  18  71 SE12      30.11F WCI  16
GRAND RAPIDS   CLOUDY    25  17  72 S14       30.12F WCI  13
KALAMAZOO      CLOUDY    25  17  72 S9        30.14F WCI  15
STURGIS*       CLOUDY    25  19  80 S9        30.13F WCI  15
THREE RIVERS*  CLOUDY    26  19  75 S9        30.14F WCI  17

$$
OHZ001>008-015>018-024>025-282100-
NORTHWEST OHIO

CITY           SKY/WX    TMP DP  RH WIND       PRES   REMARKS
WAUSEON*       CLOUDY    27  19  74 S12       30.19F WCI  16
DEFIANCE       LGT SNOW  27  22  81 S7        30.20F WCI  19
FINDLAY        CLOUDY    29  21  72 S12       30.21S WCI  19
TOLEDO EXPRESS CLOUDY    26  18  71 S9        30.21F WCI  17
TOLEDO METCALF LGT SNOW  28  17  63 SW12      30.23F WCI  18
LIMA           CLOUDY    31  17  56 S12       30.20F WCI  22

$$
AND FOR LAKE MICHIGAN COASTAL AND OPEN LAKE BUOY OBSERVATIONS

STATION/POSITION TEMP    WIND        PRES    VSBY  WAVE
                 AIR SEA DIR/SP/G                  HT/PER
                 (F)     (DEG/KT/KT) (MB)    (MI)  (FT/S)
CALUMET HARBOR    30     160/ 14/ 19 1016.3F
MICHIGAN CITY     29     130/ 17/ 22   N/A
SAINT JOSEPH      28     130/  3/  7 1018.6F
SOUTH LAKE BUOY   31 42  150/ 21/ 27 1018.1F         5/ 5

$$
&&



USA.gov is the U.S. government's official web portal to all federal, state and local government web resources and services.